Weather in Gulistan

Uzbekistan     40°18′49″N   67°58′34″E
temp.,
°C
wind,
m/s
gust,
m/s
humid.,
%
clouds,
%
prec.,
mm/h
press.,
hPa
HPBL,
m
17 january, mon
mon1723:00+11se2355100 0.1 101460
02:00+10nw2364100 0.1 1014116
05:00+7nnw6792100 2.9 1017426
08:00+6nw3392100 4.4 1018319
11:00+7wnw1192100 8.5 1020221
14:00+7e2287100 1.3 1019291
17:00+7n2192100 2.3 1020130
20:00+7ene1294100 1.1 1021152
18 january, tue
tue1823:00+8e259499 1.3 1021263
02:00+8ene2492100 0.0 1020170
05:00+8se2389100 0.3 1019120
08:00+7ene229088 0.4 101950
11:00+11ese576164 0.4 1017505
14:00+13e7952100 0.0 1013683
17:00+11ese467296 0.6 1013267
20:00+9ese3481100 0.6 1013170
19 january, wed
wed1923:00+9ese51086100 1.6 1012333
02:00+9ene2381100 0.4 1011114
05:00+9ese2282100 0.5 101042
08:00+8ese238712 0.3 101236
11:00+12w10166255 0.3 10151280
14:00+10w11176344 0.0 10161264
17:00+8w1015648 0.0 10191035
20:00+6w410627 0.0 1022654
20 january, thu
thu2023:00+5nne236599 0.0 1024500
02:00+5e337490 0.0 1024350
05:00+4ene238217 0.0 1023177
08:00+3ese22926 0.0 102434
11:00+7e45700 0.0 1021593
14:00+11e57475 0.0 10171065
17:00+10e813540 0.0 1014714
20:00+8e816590 0.0 1013616
21 january, fri
fri2123:00+7ene613650 0.0 1011604
02:00+6ene815640 0.0 1009564
05:00+5ese59700 0.0 1008233
08:00+4se36760 0.0 1008106
11:00+8se22505 0.0 1008282
14:00+12w7943100 0.0 10081009
17:00+11nw3455100 0.0 1009108
20:00+9wsw5964100 0.0 1012374